Location: Grand Rapids
(42.9630°N, 85.6680°W)
Time: 01:24:21
(UTC-04:00)

S-56A Canister/Altair - Pass Details

Date: 06 June 2024
Orbit: 637 x 2489 km, 38.9° (Epoch: 21 June)

Event Time Altitude Azimuth Distance (km) Brightness Sun altitude
Rises 10:57:38 0° 281° (WNW) 5,720 11.6 50.6°
Reaches altitude 10° 11:04:16 10° 260° (W) 4,320 11.1 51.8°
Maximum altitude 11:08:57 13° 236° (SW) 3,704 10.9 52.6°
Drops below altitude 10° 11:13:04 10° 210° (SSW) 3,651 11.1 53.3°
Sets 11:17:45 0° 185° (S) 4,219 11.5 54.1°
